Location: Wyoming Infrared Observatory
(41.0971°N, 105.9765°W)
Time: 00:27:55
(UTC-06:00)

Amateur Radio Satellites - All Passes

Search period start: 20 August 2017 23:57
Search period end: 21 August 2017 23:57
Location: Wyoming Infrared Observatory, 41.0971°N, 105.9765°W

Satellite Date Start Highest point End Downlink Frequencies (MHz)
Time Altitude Azimuth
M-CUBED/EXP-1 PRIME 21 Aug 00:02:02 00:05:32 24° 99° (E) 00:08:49 437.505
ESTCUBE 1 21 Aug 00:14:38 00:18:56 44° 261° (W) 00:23:17 437.505/2401.250
FO-29 21 Aug 00:15:45 00:18:50 15° 302° (WNW) 00:21:49 435.910
VELOX 1 21 Aug 00:21:28 00:25:42 44° 72° (ENE) 00:29:57 145.980
DUCHIFAT 1 21 Aug 00:21:54 00:25:11 22° 95° (E) 00:28:27 145.980
DX 1 21 Aug 00:25:16 00:27:45 15° 63° (ENE) 00:30:14 434.975-435.025
SPROUT 21 Aug 00:29:28 00:33:41 67° 75° (ENE) 00:37:55 437.525
UNISAT 6 21 Aug 00:37:29 00:38:46 11° 298° (WNW) 00:40:05 437.425
PCSat 21 Aug 00:41:45 00:46:00 23° 314° (NW) 00:50:18 145.827
PRISM 21 Aug 00:42:37 00:44:29 13° 297° (WNW) 00:46:21 437.425
NO-84 21 Aug 00:49:36 00:51:23 15° 128° (SE) 00:53:09 435.350 FM
SO-50 21 Aug 00:53:45 00:57:24 24° 315° (NW) 01:01:04 436.795
NANOSAT C BR1 21 Aug 01:06:13 01:10:26 83° 103° (ESE) 01:14:37 145.865
AIST 2D 21 Aug 01:08:37 01:11:33 24° 290° (WNW) 01:14:29 435.315
POLYITAN 1 21 Aug 01:10:54 01:15:07 78° 285° (WNW) 01:19:20 437.675
QB50P2 21 Aug 01:26:12 01:30:15 47° 287° (WNW) 01:34:17 145.880/145.840
EO-79 21 Aug 01:26:52 01:30:56 51° 287° (WNW) 01:35:01 145.935-145.965
50 SAT 21 Aug 01:31:58 01:35:21 70° 257° (WSW) 01:38:47 437.505
M-CUBED/EXP-1 PRIME 21 Aug 01:36:05 01:39:57 31° 297° (WNW) 01:43:34 437.505
UKube-1 21 Aug 01:37:31 01:41:45 56° 73° (ENE) 01:46:00 .
Oscar 19 21 Aug 01:40:59 01:44:59 22° 93° (E) 01:48:59 437.125/150
BUGSAT 1 21 Aug 01:56:48 02:00:48 73° 101° (E) 02:04:50 437.445
DUCHIFAT 1 21 Aug 01:57:13 02:00:51 30° 290° (WNW) 02:04:29 145.980
DX 1 21 Aug 01:59:11 02:03:29 54° 259° (W) 02:07:48 434.975-435.025
VELOX 1 21 Aug 01:59:26 02:02:21 17° 267° (W) 02:05:15 145.980
BEESAT 21 Aug 02:09:11 02:11:55 15° 62° (ENE) 02:14:40 436.000
SPROUT 21 Aug 02:09:30 02:10:00 10° 270° (W) 02:10:31 437.525
YUBILEINY 21 Aug 02:09:38 02:16:32 25° 66° (ENE) 02:23:23 435.215
NO-84 21 Aug 02:25:51 02:28:32 36° 323° (NW) 02:31:12 435.350 FM
ITUPSAT 1 21 Aug 02:41:55 02:46:03 31° 68° (ENE) 02:50:13 437.325
Gurwin Techsat 1B 21 Aug 02:53:48 02:59:07 70° 102° (ESE) 03:04:24 435.225
AO-7 21 Aug 02:54:53 02:58:26 13° 88° (E) 03:01:57 .
UKube-1 21 Aug 03:16:10 03:18:06 13° 269° (W) 03:20:01 .
Oscar 19 21 Aug 03:19:33 03:24:30 45° 290° (WNW) 03:29:25 437.125/150
MOZHAYETS 4 21 Aug 03:27:20 03:31:51 73° 75° (ENE) 03:36:25
BEESAT 21 Aug 03:44:30 03:49:11 61° 259° (WSW) 03:53:55 436.000
CUBESAT XI-V 21 Aug 03:48:22 03:52:09 25° 67° (ENE) 03:55:58 437.345
YUBILEINY 21 Aug 04:05:28 04:14:07 71° 267° (W) 04:22:43 435.215
ITUPSAT 1 21 Aug 04:19:47 04:23:50 28° 264° (W) 04:27:55 437.325
Gurwin Techsat 1B 21 Aug 04:35:16 04:38:28 16° 299° (WNW) 04:41:38 435.225
ITAMSAT 1 21 Aug 04:39:08 04:44:19 73° 103° (ESE) 04:49:28 435.822/435.867
AO-7 21 Aug 04:44:09 04:52:30 74° 106° (ESE) 05:00:47 .
AO-85 21 Aug 04:44:42 04:46:32 13° 110° (ESE) 04:48:21 145.980
BEESAT 3 21 Aug 04:47:23 04:50:38 24° 113° (ESE) 04:53:54 437.485
BEESAT 2 21 Aug 05:03:55 05:05:05 11° 108° (ESE) 05:06:15 435.950
MOZHAYETS 4 21 Aug 05:08:41 05:09:30 10° 271° (W) 05:10:20
KKS-1 21 Aug 05:13:50 05:18:19 89° 252° (WSW) 05:22:49 437.445
CUBESAT XI-V 21 Aug 05:25:09 05:29:21 33° 264° (W) 05:33:35 437.345
DOVE 4 21 Aug 05:46:53 05:50:38 25° 94° (E) 05:54:13 437.250
STARS 21 Aug 05:51:46 05:56:10 85° 257° (WSW) 06:00:36 437.465
YUBILEINY 21 Aug 06:06:13 06:09:11 12° 287° (WNW) 06:12:09 435.215
STRAND 1 21 Aug 06:06:40 06:08:27 12° 59° (ENE) 06:10:15 437.568
ITAMSAT 1 21 Aug 06:20:18 06:23:09 15° 300° (WNW) 06:26:00 435.822/435.867
LilacSat-2 21 Aug 06:21:21 06:24:12 19° 94° (E) 06:27:03 437.200
AO-85 21 Aug 06:22:38 06:26:27 50° 306° (NW) 06:30:17 145.980
BEESAT 3 21 Aug 06:24:28 06:28:03 31° 310° (NW) 06:31:42 437.485
XW-2D 21 Aug 06:25:08 06:28:04 21° 94° (E) 06:31:00 145.860 - 145.880
NUDT-PHONESAT 21 Aug 06:30:42 06:33:09 17° 93° (E) 06:35:36 437.300
XW-2B 21 Aug 06:35:55 06:39:12 26° 96° (E) 06:42:28 145.730 - 145.750
AO-7 21 Aug 06:37:57 06:44:30 27° 305° (NW) 06:51:02 .
BEESAT 2 21 Aug 06:38:18 06:42:15 64° 304° (NW) 06:46:18 435.950
CUTE-I 21 Aug 06:50:06 06:54:57 35° 97° (E) 06:59:45 437.470
XW-2C 21 Aug 06:54:41 06:58:24 46° 99° (E) 07:02:06 145.795 - 145.815
XW-2F 21 Aug 07:06:31 07:10:20 62° 100° (E) 07:14:07 145.980 - 146.000
NO-84 21 Aug 07:21:59 07:23:55 16° 28° (NNE) 07:25:55 435.350 FM
DOVE 4 21 Aug 07:24:25 07:28:18 28° 292° (WNW) 07:32:00 437.250
KAITUO 1B 21 Aug 07:31:09 07:34:58 80° 283° (WNW) 07:38:46 145.475/437.950
CUTE 1.7 + AOD 2 21 Aug 07:35:19 07:38:51 24° 95° (E) 07:42:22 437.475
STRAND 1 21 Aug 07:41:44 07:46:51 89° 77° (ENE) 07:51:59 437.568
SO-50 21 Aug 07:43:33 07:47:51 39° 51° (NE) 07:52:09 436.795
PCSat 21 Aug 07:44:51 07:50:05 46° 55° (NE) 07:55:17 145.827
CUBEBUG 2 21 Aug 07:50:05 07:53:02 18° 93° (E) 07:56:01 437.445
HO-68 21 Aug 07:51:28 07:58:13 43° 99° (E) 08:04:55 435.675
LilacSat-2 21 Aug 07:55:06 07:58:29 29° 290° (WNW) 08:01:51 437.200
XW-2D 21 Aug 07:58:58 08:02:13 27° 290° (WNW) 08:05:29 145.860 - 145.880
NUDT-PHONESAT 21 Aug 08:03:45 08:07:06 31° 289° (WNW) 08:10:28 437.300
XW-2B 21 Aug 08:10:17 08:13:14 21° 291° (WNW) 08:16:10 145.730 - 145.750
ZACube-1 21 Aug 08:21:51 08:23:54 13° 91° (E) 08:25:57 437.345
SEEDS 21 Aug 08:22:00 08:26:09 50° 99° (E) 08:30:16 437.485
CUTE-I 21 Aug 08:30:18 08:34:53 30° 294° (WNW) 08:39:26 437.470
XW-2C 21 Aug 08:30:20 08:32:10 13° 295° (WNW) 08:34:00 145.795 - 145.815
FO-29 21 Aug 08:39:22 08:46:04 37° 67° (ENE) 08:52:14 435.910
AO-73 21 Aug 08:41:52 08:45:02 20° 94° (E) 08:48:13 145.935
XW-2F 21 Aug 08:43:34 08:43:55 10° 297° (WNW) 08:44:16 145.980 - 146.000
TIGRISAT 21 Aug 08:57:59 08:59:53 13° 63° (ENE) 09:01:47 435.000
NO-84 21 Aug 08:58:30 09:01:33 66° 224° (SW) 09:04:51 435.350 FM
XW-2A 21 Aug 08:59:18 09:02:39 58° 285° (WNW) 09:06:00 145.665 - 145.685
AAUSAT CUBESAT 2 21 Aug 09:06:17 09:10:29 73° 101° (ESE) 09:14:38 437.432
CUTE 1.7 + AOD 2 21 Aug 09:10:56 09:14:38 28° 291° (WNW) 09:18:19 437.475
RS-15 21 Aug 09:12:40 09:16:43 12° 93° (E) 09:20:47 29.354- 29.394
nSIGHT-1 21 Aug 09:14:02 09:15:32 13° 130° (SE) 09:17:02 .
UWE-3 21 Aug 09:17:24 09:21:38 80° 285° (WNW) 09:26:00 435.000/436.395/437.385
SO-50 21 Aug 09:24:25 09:28:06 24° 247° (WSW) 09:31:48 436.795
Tancredo 1 21 Aug 09:24:54 09:27:45 62° 142° (SE) 09:30:39 437.200
Oscar 11 21 Aug 09:25:50 09:30:01 43° 98° (E) 09:34:10 .
CUBEBUG 2 21 Aug 09:25:53 09:29:45 37° 288° (WNW) 09:33:42 437.445
PCSat 21 Aug 09:28:50 09:33:11 25° 253° (WSW) 09:37:30 145.827
HO-68 21 Aug 09:39:22 09:45:49 38° 296° (WNW) 09:52:15 435.675
O/OREOS (USA 219) 21 Aug 09:45:20 09:49:43 59° 108° (ESE) 09:54:07 437.305
Max Valier Satellite 21 Aug 09:51:01 09:52:45 13° 92° (E) 09:54:29 145.860
PRISM 21 Aug 09:54:26 09:58:18 38° 71° (ENE) 10:02:12 437.425
ZACube-1 21 Aug 09:56:16 10:00:27 54° 286° (WNW) 10:04:43 437.345
UNISAT 6 21 Aug 09:56:49 10:01:05 60° 75° (ENE) 10:05:18 437.425
SEEDS 21 Aug 09:59:02 10:01:24 15° 296° (WNW) 10:03:46 437.485
DELFI C3 21 Aug 10:08:22 10:11:53 29° 96° (E) 10:15:20 145.870
AO-73 21 Aug 10:17:25 10:21:20 36° 289° (WNW) 10:25:20 145.935
FO-29 21 Aug 10:23:41 10:30:56 46° 261° (W) 10:37:35 435.910
TIGRISAT 21 Aug 10:31:48 10:36:05 60° 259° (W) 10:40:19 435.000
ISS 21 Aug 10:40:27 10:43:44 90° 308° (NW) 10:47:01 437.550
EO-88 21 Aug 10:42:35 10:46:07 43° 99° (E) 10:49:38 145.990 - 145.960
AAUSAT CUBESAT 2 21 Aug 10:44:41 10:45:18 10° 298° (WNW) 10:45:56 437.432
QB50P2 21 Aug 10:45:36 10:47:00 12° 62° (ENE) 10:48:26 145.880/145.840
M-CUBED/EXP-1 PRIME 21 Aug 10:46:29 10:50:29 32° 64° (ENE) 10:54:37 437.505
EO-79 21 Aug 10:46:41 10:47:35 11° 62° (ENE) 10:48:28 145.935-145.965
nSIGHT-1 21 Aug 10:48:15 10:51:30 72° 325° (NW) 10:54:47 .
Tancredo 1 21 Aug 11:00:56 11:03:10 19° 339° (NNW) 11:05:24 437.200
Oscar 11 21 Aug 11:02:55 11:05:47 17° 295° (WNW) 11:08:40 .
DUCHIFAT 1 21 Aug 11:14:06 11:16:48 17° 65° (ENE) 11:19:31 145.980
RS-15 21 Aug 11:14:36 11:26:29 62° 113° (ESE) 11:38:31 29.354- 29.394
Max Valier Satellite 21 Aug 11:23:17 11:26:46 39° 287° (WNW) 11:30:15 145.860
O/OREOS (USA 219) 21 Aug 11:26:53 11:29:31 15° 307° (NW) 11:32:09 437.305
PRISM 21 Aug 11:30:58 11:33:43 17° 267° (W) 11:36:29 437.425
UNISAT 6 21 Aug 11:36:38 11:38:09 12° 270° (W) 11:39:40 437.425
AIST 2D 21 Aug 11:41:50 11:45:17 72° 259° (W) 11:48:47 435.315
DELFI C3 21 Aug 11:43:27 11:46:27 21° 292° (WNW) 11:49:25 145.870
NANOSAT C BR1 21 Aug 11:57:45 12:01:51 58° 74° (ENE) 12:05:58 145.865
POLYITAN 1 21 Aug 12:02:52 12:07:03 75° 76° (ENE) 12:11:14 437.675
ESTCUBE 1 21 Aug 12:06:57 12:11:12 37° 98° (E) 12:15:23 437.505/2401.250
LO-87 21 Aug 12:10:47 12:14:19 70° 102° (ESE) 12:17:50 145.935 - 145.965
SPROUT 21 Aug 12:17:31 12:18:42 11° 90° (E) 12:19:54 437.525
EO-88 21 Aug 12:17:45 12:19:24 13° 295° (WNW) 12:21:01 145.990 - 145.960
QB50P2 21 Aug 12:18:04 12:22:14 66° 259° (WSW) 12:26:26 145.880/145.840
ISS 21 Aug 12:18:06 12:20:34 19° 342° (NNW) 12:23:04 437.550
EO-79 21 Aug 12:18:33 12:22:44 72° 258° (WSW) 12:26:56 145.935-145.965
M-CUBED/EXP-1 PRIME 21 Aug 12:20:59 12:24:50 28° 260° (W) 12:28:49 437.505
nSIGHT-1 21 Aug 12:26:02 12:28:20 18° 344° (NNW) 12:30:40 .
Gurwin Techsat 1B 21 Aug 12:37:54 12:40:49 15° 60° (ENE) 12:43:43 435.225
Tancredo 1 21 Aug 12:38:28 12:39:14 11° 359° (N) 12:39:59 437.200
BUGSAT 1 21 Aug 12:46:01 12:49:57 47° 73° (ENE) 12:53:52 437.445
DUCHIFAT 1 21 Aug 12:48:12 12:52:08 41° 261° (W) 12:56:06 145.980
Oscar 19 21 Aug 12:57:33 13:02:04 32° 67° (ENE) 13:06:38 437.125/150
BEESAT 3 21 Aug 13:04:08 13:06:48 17° 43° (NE) 13:09:26 437.485
AO-85 21 Aug 13:13:40 13:16:23 16° 43° (NE) 13:19:13 145.980
BEESAT 2 21 Aug 13:21:09 13:21:26 10° 37° (NE) 13:21:44 435.950
RS-15 21 Aug 13:27:49 13:39:32 47° 317° (NW) 13:51:18 29.354- 29.394
NANOSAT C BR1 21 Aug 13:36:31 13:37:55 11° 270° (W) 13:39:18 145.865
ESTCUBE 1 21 Aug 13:44:17 13:47:44 22° 294° (WNW) 13:51:10 437.505/2401.250
VELOX 1 21 Aug 13:47:28 13:51:55 89° 300° (WNW) 13:56:19 145.980
DX 1 21 Aug 13:47:45 13:51:21 25° 96° (E) 13:54:55 434.975-435.025
SPROUT 21 Aug 13:50:47 13:54:59 61° 286° (WNW) 13:59:09 437.525
AO-7 21 Aug 13:53:04 13:59:13 23° 52° (NE) 14:05:21 .
ISS 21 Aug 13:56:21 13:58:01 13° 2° (N) 13:59:40 437.550
nSIGHT-1 21 Aug 14:04:01 14:05:42 13° 4° (N) 14:07:23 .
Tancredo 1 21 Aug 14:13:17 14:15:19 17° 19° (NNE) 14:17:20 437.200
Gurwin Techsat 1B 21 Aug 14:14:47 14:20:06 76° 257° (WSW) 14:25:26 435.225
ITAMSAT 1 21 Aug 14:20:32 14:23:20 15° 60° (ENE) 14:26:09 435.822/435.867
BUGSAT 1 21 Aug 14:23:35 14:25:33 13° 268° (W) 14:27:31 437.445
50 SAT 21 Aug 14:25:58 14:29:21 70° 284° (WNW) 14:32:40 437.505
Oscar 19 21 Aug 14:36:50 14:41:20 31° 264° (W) 14:45:54 437.125/150
BEESAT 3 21 Aug 14:40:47 14:44:41 53° 242° (WSW) 14:48:29 437.485
AO-85 21 Aug 14:52:51 14:57:09 69° 240° (WSW) 15:01:48 145.980
BEESAT 2 21 Aug 14:55:53 14:59:57 70° 56° (ENE) 15:03:57 435.950
UKube-1 21 Aug 15:00:14 15:04:33 78° 286° (WNW) 15:08:51 .
YUBILEINY 21 Aug 15:11:10 15:18:16 29° 82° (E) 15:25:20 435.215
MOZHAYETS 4 21 Aug 15:23:21 15:26:24 17° 92° (E) 15:29:26
DX 1 21 Aug 15:23:44 15:27:29 29° 292° (WNW) 15:31:13 434.975-435.025
ISS 21 Aug 15:32:37 15:35:22 24° 22° (NNE) 15:38:07 437.550
nSIGHT-1 21 Aug 15:40:03 15:42:55 27° 24° (NNE) 15:45:45 .
AO-7 21 Aug 15:42:36 15:51:00 85° 252° (WSW) 15:59:26 .
BEESAT 21 Aug 15:44:43 15:49:02 33° 97° (E) 15:53:19 436.000
RS-15 21 Aug 15:47:00 15:56:18 23° 350° (N) 16:05:28 29.354- 29.394
Tancredo 1 21 Aug 15:47:55 15:50:50 85° 219° (SW) 15:53:43 437.200
ITAMSAT 1 21 Aug 15:56:58 16:02:10 75° 257° (WSW) 16:07:23 435.822/435.867
ITUPSAT 1 21 Aug 16:19:14 16:24:02 74° 103° (ESE) 16:28:47 437.325
BEESAT 2 21 Aug 16:36:40 16:37:04 10° 253° (WSW) 16:37:29 435.950
DOVE 4 21 Aug 16:51:03 16:55:37 31° 69° (ENE) 17:00:07 437.250
MOZHAYETS 4 21 Aug 16:59:21 17:03:46 47° 288° (WNW) 17:08:12
LilacSat-2 21 Aug 17:05:42 17:06:02 10° 63° (ENE) 17:06:23 437.200
YUBILEINY 21 Aug 17:05:44 17:14:25 62° 282° (WNW) 17:23:06 435.215
KKS-1 21 Aug 17:05:54 17:08:48 17° 93° (E) 17:11:41 437.445
XW-2D 21 Aug 17:08:26 17:09:13 11° 64° (ENE) 17:10:00 145.860 - 145.880
ISS 21 Aug 17:08:50 17:12:02 54° 220° (SW) 17:15:13 437.550
nSIGHT-1 21 Aug 17:16:17 17:19:23 42° 222° (SW) 17:22:27 .
XW-2B 21 Aug 17:18:19 17:20:12 13° 65° (ENE) 17:22:05 145.730 - 145.750
CUBESAT XI-V 21 Aug 17:21:01 17:25:42 60° 101° (E) 17:30:21 437.345
BEESAT 21 Aug 17:22:42 17:26:39 26° 293° (WNW) 17:30:36 436.000
XW-2C 21 Aug 17:36:14 17:39:10 22° 69° (ENE) 17:42:07 145.795 - 145.815
AO-7 21 Aug 17:39:55 17:44:49 17° 270° (W) 17:49:47 .
STARS 21 Aug 17:42:10 17:45:02 17° 93° (E) 17:47:52 437.465
XW-2F 21 Aug 17:47:22 17:50:35 28° 70° (ENE) 17:53:49 145.980 - 146.000
ITUPSAT 1 21 Aug 17:59:03 18:01:14 13° 299° (WNW) 18:03:25 437.325
RS-15 21 Aug 18:04:11 18:14:25 29° 25° (NNE) 18:24:15 29.354- 29.394
KAITUO 1B 21 Aug 18:10:44 18:14:15 42° 73° (ENE) 18:17:48 145.475/437.950
CUTE-I 21 Aug 18:11:37 18:16:51 57° 72° (ENE) 18:22:06 437.470
O/OREOS (USA 219) 21 Aug 18:17:39 18:19:51 13° 52° (NE) 18:22:03 437.305
HO-68 21 Aug 18:20:24 18:26:32 32° 62° (ENE) 18:32:42 435.675
CUTE 1.7 + AOD 2 21 Aug 18:28:23 18:31:14 18° 66° (ENE) 18:34:06 437.475
DOVE 4 21 Aug 18:28:24 18:33:10 34° 264° (W) 18:37:52 437.250
LilacSat-2 21 Aug 18:36:03 18:39:47 60° 260° (W) 18:43:33 437.200
XW-2D 21 Aug 18:39:12 18:42:53 56° 261° (W) 18:46:37 145.860 - 145.880
KKS-1 21 Aug 18:41:20 18:45:33 43° 289° (WNW) 18:49:44 437.445
NUDT-PHONESAT 21 Aug 18:42:01 18:45:40 76° 258° (WSW) 18:49:22 437.300
CUBEBUG 2 21 Aug 18:48:48 18:51:19 16° 66° (ENE) 18:53:50 437.445
XW-2B 21 Aug 18:50:25 18:53:59 42° 261° (W) 18:57:36 145.730 - 145.750
CUBESAT XI-V 21 Aug 18:59:51 19:02:33 15° 297° (WNW) 19:05:13 437.345
XW-2C 21 Aug 19:10:09 19:13:14 24° 265° (W) 19:16:21 145.795 - 145.815
YUBILEINY 21 Aug 19:10:27 19:13:18 12° 305° (NW) 19:16:08 435.215
SEEDS 21 Aug 19:13:22 19:17:09 33° 71° (ENE) 19:20:59 437.485
STARS 21 Aug 19:17:26 19:21:33 42° 289° (WNW) 19:25:39 437.465
ZACube-1 21 Aug 19:19:52 19:20:04 10° 62° (ENE) 19:20:17 437.345
XW-2F 21 Aug 19:22:02 19:24:43 19° 266° (W) 19:27:25 145.980 - 146.000
XW-2A 21 Aug 19:30:11 19:33:17 38° 73° (ENE) 19:36:25 145.665 - 145.685
AO-73 21 Aug 19:38:13 19:40:33 15° 65° (ENE) 19:42:53 145.935
KAITUO 1B 21 Aug 19:46:56 19:48:28 12° 269° (W) 19:50:00 145.475/437.950
STRAND 1 21 Aug 19:52:39 19:57:08 30° 96° (E) 20:01:35 437.568
CUTE-I 21 Aug 19:53:38 19:57:14 18° 268° (W) 20:00:52 437.470
O/OREOS (USA 219) 21 Aug 19:55:15 19:59:48 73° 250° (WSW) 20:04:20 437.305
AAUSAT CUBESAT 2 21 Aug 19:55:51 19:59:49 45° 73° (ENE) 20:03:49 437.432
CUTE 1.7 + AOD 2 21 Aug 20:02:45 20:06:44 40° 262° (W) 20:10:46 437.475
HO-68 21 Aug 20:07:03 20:13:58 51° 260° (W) 20:20:54 435.675
UWE-3 21 Aug 20:14:00 20:18:11 79° 78° (ENE) 20:22:22 435.000/436.395/437.385
RS-15 21 Aug 20:17:18 20:29:27 74° 54° (NE) 20:40:53 29.354- 29.394
Oscar 11 21 Aug 20:20:26 20:24:16 32° 70° (ENE) 20:28:08 .
CUBEBUG 2 21 Aug 20:23:29 20:27:36 45° 261° (W) 20:31:38 437.445
SEEDS 21 Aug 20:49:48 20:52:54 20° 267° (W) 20:56:02 437.485
ZACube-1 21 Aug 20:51:37 20:55:45 72° 258° (WSW) 20:59:54 437.345
DELFI C3 21 Aug 20:54:08 20:56:49 18° 67° (ENE) 20:59:31 145.870
XW-2A 21 Aug 21:05:41 21:06:12 10° 269° (W) 21:06:44 145.665 - 145.685
AO-73 21 Aug 21:12:25 21:16:24 46° 261° (W) 21:20:23 145.935
EO-88 21 Aug 21:20:47 21:23:22 19° 68° (ENE) 21:25:59 145.990 - 145.960
STRAND 1 21 Aug 21:31:47 21:36:15 32° 293° (WNW) 21:40:43 437.568
AAUSAT CUBESAT 2 21 Aug 21:33:10 21:35:30 15° 269° (W) 21:37:51 437.432
FO-29 21 Aug 21:34:46 21:39:02 23° 92° (E) 21:43:07 435.910
UNISAT 6 21 Aug 21:50:09 21:51:54 12° 91° (E) 21:53:41 437.425
Oscar 11 21 Aug 21:57:09 22:00:27 21° 266° (W) 22:03:46 .
SO-50 21 Aug 22:00:43 22:02:10 11° 108° (ESE) 22:03:36 436.795
Max Valier Satellite 21 Aug 22:01:21 22:04:59 82° 77° (ENE) 22:08:40 145.860
TIGRISAT 21 Aug 22:23:21 22:26:59 26° 96° (E) 22:30:41 435.000
PCSat 21 Aug 22:26:21 22:31:25 42° 112° (ESE) 22:36:31 145.827
DELFI C3 21 Aug 22:27:36 22:31:18 36° 263° (W) 22:35:01 145.870
RS-15 21 Aug 22:30:58 22:40:46 32° 257° (WSW) 22:50:11 29.354- 29.394
LO-87 21 Aug 22:46:47 22:49:50 26° 71° (ENE) 22:52:52 145.935 - 145.965
EO-88 21 Aug 22:53:46 22:56:52 26° 264° (W) 22:59:59 145.990 - 145.960
ESTCUBE 1 21 Aug 23:06:13 23:10:16 34° 70° (ENE) 23:14:22 437.505/2401.250
PRISM 21 Aug 23:10:31 23:14:38 64° 102° (ESE) 23:18:41 437.425
FO-29 21 Aug 23:19:12 23:24:25 41° 291° (WNW) 23:29:16 435.910
UNISAT 6 21 Aug 23:24:42 23:28:57 58° 286° (WNW) 23:33:15 437.425
SO-50 21 Aug 23:37:28 23:41:58 76° 303° (WNW) 23:46:30 436.795
POLYITAN 1 21 Aug 23:49:38 23:51:15 12° 91° (E) 23:52:53 437.675
